Weather History for Rotterdam, Netherlands

Change the Weather History Date:

Thursday, September 12, 2013

  Actual Average Record
Temperature  
Mean Temperature 58 °F -  
Max Temperature 66 °F 61 °F 82 °F (2006)
Min Temperature 51 °F 49 °F 45 °F (2014)
Degree Days  
Heating Degree Days 6    
Growing Degree Days 8 (Base 50)    
Moisture  
Dew Point 55 °F    
Average Humidity 86    
Maximum Humidity 100    
Minimum Humidity 66    
Precipitation  
Precipitation 0.02 in - - ()
Sea Level Pressure  
Sea Level Pressure 30.03 in    
Wind  
Wind Speed 5 mph ()    
Max Wind Speed 12 mph    
Max Gust Speed -    
Visibility 6.9 miles    
Events Rain    
Averages and records for this station are not official NWS values.
T = Trace of Precipitation, MM = Missing Value Source: Averaged Metar Reports

Daily Weather History Graph

Daily Weather History Graph

Search for Another Location

Airport:

Trip Planner

Search our weather history database for the weather conditions in past years. The results will help you decide how hot, cold, wet, or windy it might be!

Date:

Astronomy

Sep. 12, 2013 Rise Set
Actual Time 7:12 AM CEST 8:03 PM CEST
Civil Twilight 6:37 AM CEST 8:37 PM CEST
Nautical Twilight 5:56 AM CEST 9:18 PM CEST
Astronomical Twilight 5:12 AM CEST 10:02 PM CEST
Moon 3:13 PM CEST (9/12) 11:54 PM CEST (9/12)
Length of Visible Light 14h 00m
Length of Day
12h 51m
Waxing Crescent, 47% of the Moon is Illuminated
Sep 12
Waxing Crescent
Sep 12
First Quarter
Sep 19
Full
Sep 27
Last Quarter
Oct 5
New

Hourly Weather History & Observations

Time (CEST) Temp. Dew Point Humidity Pressure Visibility Wind Dir Wind Speed Gust Speed Precip Events Conditions
12:25 AM 57.2 °F 55.4 °F 94% 30.01 in 6.2 mi Variable 2.3 mph - N/A   Mostly Cloudy
12:55 AM 57.2 °F 55.4 °F 94% 30.01 in 6.2 mi Variable 2.3 mph - N/A   Mostly Cloudy
1:25 AM 57.2 °F 53.6 °F 88% 30.01 in 6.2 mi NNW 4.6 mph - N/A   Overcast
1:55 AM 57.2 °F 55.4 °F 94% 30.01 in 6.2 mi NW 4.6 mph - N/A   Overcast
2:00 AM 57 °F 54 °F 88% 30.01 in 12 mi NW 6.7 mph - - Rain Light Rain Showers
2:25 AM 57.2 °F 55.4 °F 94% 30.01 in 6.2 mi North 3.5 mph - N/A   Mostly Cloudy
2:55 AM 57.2 °F 55.4 °F 94% 30.01 in 6.2 mi Variable 2.3 mph - N/A   Mostly Cloudy
3:25 AM 55.4 °F 51.8 °F 88% 29.98 in 6.2 mi NNW 5.8 mph - N/A   Partly Cloudy
3:55 AM 55.4 °F 51.8 °F 88% 29.98 in 6.2 mi NW 5.8 mph - N/A   Unknown
4:25 AM 57.2 °F 51.8 °F 82% 29.98 in 6.2 mi NNW 5.8 mph - N/A   Overcast
4:55 AM 57.2 °F 51.8 °F 82% 29.98 in 6.2 mi NW 4.6 mph - N/A   Overcast
5:25 AM 57.2 °F 53.6 °F 88% 29.98 in 6.2 mi NW 5.8 mph - N/A   Overcast
5:55 AM 57.2 °F 55.4 °F 94% 29.98 in 6.2 mi NW 8.1 mph - N/A   Overcast
6:25 AM 57.2 °F 55.4 °F 94% 30.01 in - NNE 3.5 mph - N/A Rain Heavy Rain Showers
6:55 AM 55.4 °F 55.4 °F 100% 30.01 in 5.6 mi Variable 1.2 mph - N/A Rain Rain
7:25 AM 55.4 °F 55.4 °F 100% 30.01 in 3.7 mi Variable 1.2 mph - N/A Rain Heavy Rain Showers
7:55 AM 57.2 °F 55.4 °F 94% 30.01 in 6.2 mi Variable 1.2 mph - N/A   Drizzle
8:00 AM 56 °F 56 °F 100% 30.01 in 17 mi Calm Calm - - Rain Rain
8:25 AM 57.2 °F 57.2 °F 100% 30.01 in 6.2 mi SW 2.3 mph - N/A   Overcast
8:55 AM 57.2 °F 57.2 °F 100% 30.01 in 6.2 mi Variable 2.3 mph - N/A Rain Light Rain
9:25 AM 57.2 °F 57.2 °F 100% 30.01 in 6.2 mi SW 3.5 mph - N/A   Overcast
9:55 AM 59.0 °F 57.2 °F 94% 30.01 in 6.2 mi West 3.5 mph - N/A   Overcast
10:25 AM 59.0 °F 57.2 °F 94% 30.01 in 6.2 mi West 4.6 mph - N/A   Overcast
10:55 AM 60.8 °F 55.4 °F 82% 30.04 in 6.2 mi NW 4.6 mph - N/A   Partly Cloudy
11:25 AM 62.6 °F 55.4 °F 77% 30.04 in 6.2 mi WNW 5.8 mph - N/A   Mostly Cloudy
11:55 AM 64.4 °F 55.4 °F 73% 30.04 in 6.2 mi WNW 6.9 mph - N/A   Partly Cloudy
12:25 PM 62.6 °F 55.4 °F 77% 30.04 in 6.2 mi WNW 9.2 mph - N/A   Mostly Cloudy
12:55 PM 62.6 °F 55.4 °F 77% 30.04 in 6.2 mi WNW 8.1 mph - N/A   Scattered Clouds
1:25 PM 64.4 °F 53.6 °F 68% 30.04 in 6.2 mi WNW 9.2 mph - N/A   Unknown
1:55 PM 64.4 °F 55.4 °F 73% 30.04 in 6.2 mi West 9.2 mph - N/A   Partly Cloudy
2:00 PM 64 °F 56 °F 67% 30.05 in 14 mi West 8.9 mph - -   Partly Cloudy
2:25 PM 64.4 °F 55.4 °F 73% 30.04 in 6.2 mi West 6.9 mph - N/A   Unknown
2:55 PM 64.4 °F 57.2 °F 77% 30.04 in 6.2 mi West 8.1 mph - N/A   Scattered Clouds
3:25 PM 62.6 °F 57.2 °F 82% 30.04 in 6.2 mi WSW 9.2 mph - N/A   Overcast
3:55 PM 62.6 °F 57.2 °F 82% 30.04 in 6.2 mi WSW 3.5 mph - N/A   Mostly Cloudy
4:25 PM 64.4 °F 55.4 °F 73% 30.04 in 6.2 mi Variable 3.5 mph - N/A Rain Light Rain
4:55 PM 66.2 °F 57.2 °F 73% 30.04 in 6.2 mi NW 9.2 mph - N/A   Mostly Cloudy
5:00 PM 64 °F 55 °F 66% 30.04 in 18 mi NNW 11.2 mph - - Rain Rain
5:25 PM 64.4 °F 55.4 °F 73% 30.04 in 6.2 mi North 11.5 mph - N/A Rain Rain
5:55 PM 62.6 °F 57.2 °F 82% 30.04 in 6.2 mi North 6.9 mph - N/A Rain Light Rain
6:25 PM 62.6 °F 57.2 °F 82% 30.04 in 6.2 mi NNW 9.2 mph - N/A   Mostly Cloudy
6:55 PM 62.6 °F 57.2 °F 82% 30.04 in 6.2 mi NNW 8.1 mph - N/A   Overcast
7:25 PM 62.6 °F 55.4 °F 77% 30.04 in 6.2 mi NNW 9.2 mph - N/A   Scattered Clouds
7:55 PM 60.8 °F 55.4 °F 82% 30.04 in 6.2 mi NW 6.9 mph - N/A   Mostly Cloudy
8:00 PM 60 °F 55 °F 78% 30.06 in 22 mi NW 6.7 mph - -   Partly Cloudy
8:25 PM 59.0 °F 55.4 °F 88% 30.06 in 6.2 mi NNW 4.6 mph - N/A   Unknown
8:55 PM 55.4 °F 53.6 °F 94% 30.06 in 6.2 mi NW 4.6 mph - N/A   Unknown
9:25 PM 55.4 °F 53.6 °F 94% 30.06 in 6.2 mi NW 3.5 mph - N/A   Unknown
9:55 PM 55.4 °F 53.6 °F 94% 30.06 in 6.2 mi West 2.3 mph - N/A   Unknown
10:25 PM 55.4 °F 53.6 °F 94% 30.06 in 6.2 mi West 4.6 mph - N/A   Unknown
10:55 PM 53.6 °F 51.8 °F 94% 30.09 in 6.2 mi West 4.6 mph - N/A   Unknown
11:00 PM 54 °F 53 °F 93% 30.10 in 7 mi West 4.5 mph - -  
11:25 PM 51.8 °F 51.8 °F 100% 30.09 in 6.2 mi West 4.6 mph - N/A   Unknown
11:55 PM 51.8 °F 51.8 °F 100% 30.09 in 6.2 mi West 3.5 mph - N/A   Unknown